Tracking 17143 objects as of 25-May-2015
HD Live streaming from Space Station

SCOUT B-1 R/B

Track SCOUT B-1 R/B now!
10-day predictions
SCOUT B-1 R/B is classified as:


NORAD ID: 5438
Int'l Code: 1971-071B
Perigee: 633.0 km
Apogee: 787.2 km
Inclination: 50.1 °
Period: 98.8 minutes
Semi major axis: 7081 km
RCS: 0.747 m2 (medium)
Launch date: August 16, 1971
Source: United States (US)

Note: This is a ROCKET BODY
Your satellite tracking list
Your tracking list is empty





NASA's NSSDC Master Catalog

Two Line Element Set (TLE):
1 05438U 71071B   15144.14524485  .00000222  00000-0  86970-4 0  9994
2 05438 050.1460 173.6758 0108840 340.5312 019.1476 14.56977425309611

Source of the keplerian elements: AFSPC

N2YO: 304